QPF
0.00 0.00 0.00 0.00 0.02 0.01 0.00 0.00 0.00 0.00 0.00 0.00 0.04 0.03 0.02 0.01 0.00 0.00 0.01 0.00 0.00 0.00 0.00 0.00 0.00 0.00 0.00 0.00 0.00 0.01 0.03 0.00
0.00 0.00 0.00 0.01 0.03 0.11 0.09 0.04 0.00 0.00 0.00 0.00 0.02 0.03 0.03 0.03 0.00 0.00 0.00 0.00 0.00 0.00 0.00 0.00 0.00 0.00 0.00 0.00 0.00 0.01 0.00 0.00
0.00 0.00 0.00 0.00 0.01 0.08 0.16 0.13 0.06 0.00 0.00 0.00 0.00 0.02 0.02 0.01 0.00 0.00 0.00 0.01 0.00 0.00 0.00 0.00 0.00 0.01 0.00 0.00 0.00 0.00 0.00 0.00
0.00 0.00 0.00 0.00 0.00 0.00 0.06 0.16 0.21 0.08 0.01 0.02 0.05 0.03 0.02 0.01 0.00 0.00 0.01 0.02 0.01 0.00 0.00 0.00 0.00 0.00 0.01 0.00 0.00 0.00 0.00 0.00
0.00 0.00 0.00 0.00 0.00 0.00 0.00 0.03 0.15 0.18 0.06 0.03 0.08 0.13 0.11 0.05 0.02 0.03 0.04 0.02 0.02 0.01 0.00 0.00 0.00 0.00 0.00 0.01 0.00 0.00 0.00 0.00
0.00 0.00 0.00 0.00 0.00 0.00 0.00 0.00 0.02 0.14 0.20 0.10 0.02 0.07 0.11 0.13 0.08 0.09 0.04 0.02 0.00 0.00 0.01 0.00 0.00 0.00 0.00 0.00 0.00 0.00 0.00 0.02
0.00 0.00 0.00 0.00 0.00 0.00 0.00 0.00 0.00 0.02 0.12 0.21 0.18 0.14 0.09 0.12 0.16 0.15 0.08 0.05 0.01 0.01 0.00 0.00 0.00 0.00 0.00 0.00 0.00 0.00 0.00 0.01
0.00 0.00 0.00 0.00 0.00 0.00 0.00 0.00 0.00 0.00 0.01 0.07 0.13 0.13 0.13 0.15 0.19 0.23 0.22 0.15 0.06 0.01 0.00 0.00 0.00 0.00 0.00 0.00 0.01 0.01 0.00 0.00
0.00 0.00 0.00 0.00 0.00 0.00 0.00 0.00 0.00 0.00 0.00 0.01 0.04 0.07 0.07 0.05 0.10 0.16 0.24 0.28 0.19 0.06 0.00 0.00 0.00 0.00 0.00 0.00 0.03 0.02 0.02 0.00
0.00 0.00 0.00 0.00 0.00 0.00 0.00 0.00 0.00 0.00 0.00 0.00 0.00 0.02 0.05 0.05 0.02 0.03 0.10 0.13 0.18 0.18 0.08 0.00 0.00 0.01 0.00 0.00 0.01 0.02 0.06 0.05
0.00 0.00 0.00 0.00 0.00 0.00 0.00 0.00 0.00 0.00 0.00 0.00 0.00 0.00 0.02 0.05 0.02 0.00 0.03 0.11 0.16 0.15 0.13 0.03 0.01 0.00 0.02 0.00 0.00 0.00 0.02 0.06
0.00 0.00 0.00 0.00 0.00 0.00 0.00 0.00 0.00 0.00 0.00 0.00 0.00 0.00 0.00 0.01 0.02 0.01 0.01 0.03 0.09 0.15 0.15 0.08 0.02 0.00 0.02 0.04 0.01 0.00 0.00 0.01
0.00 0.00 0.00 0.00 0.00 0.00 0.00 0.00 0.00 0.00 0.00 0.00 0.00 0.00 0.00 0.00 0.01 0.01 0.01 0.01 0.03 0.07 0.13 0.13 0.07 0.01 0.07 0.07 0.07 0.04 0.02 0.04
0.00 0.00 0.00 0.00 0.00 0.00 0.00 0.00 0.00 0.00 0.00 0.00 0.00 0.00 0.00 0.00 0.00 0.01 0.01 0.01 0.02 0.05 0.08 0.12 0.11 0.05 0.06 0.08 0.08 0.06 0.03 0.03
0.00 0.00 0.00 0.00 0.00 0.00 0.00 0.00 0.00 0.00 0.00 0.00 0.00 0.00 0.00 0.00 0.00 0.01 0.01 0.01 0.01 0.03 0.06 0.08 0.09 0.07 0.02 0.05 0.04 0.02 0.01 0.01
0.00 0.00 0.00 0.00 0.00 0.00 0.00 0.00 0.00 0.00 0.00 0.00 0.00 0.00 0.00 0.00 0.00 0.00 0.00 0.01 0.01 0.02 0.03 0.06 0.08 0.09 0.06 0.04 0.01 0.00 0.00 0.00
0.00 0.00 0.00 0.00 0.00 0.00 0.00 0.00 0.00 0.00 0.00 0.00 0.00 0.00 0.00 0.00 0.00 0.00 0.00 0.01 0.01 0.01 0.01 0.03 0.09 0.09 0.06 0.06 0.03 0.00 0.00 0.00
0.00 0.00 0.00 0.00 0.00 0.00 0.00 0.00 0.00 0.00 0.00 0.00 0.00 0.00 0.00 0.00 0.00 0.00 0.00 0.00 0.00 0.01 0.01 0.01 0.04 0.10 0.07 0.07 0.04 0.01 0.00 0.00
0.00 0.00 0.00 0.00 0.00 0.00 0.00 0.00 0.00 0.00 0.00 0.00 0.00 0.00 0.00 0.00 0.00 0.00 0.00 0.00 0.00 0.00 0.01 0.01 0.01 0.03 0.08 0.05 0.05 0.06 0.03 0.00
0.00 0.00 0.00 0.00 0.00 0.00 0.00 0.00 0.00 0.00 0.00 0.00 0.00 0.01 0.01 0.00 0.00 0.00 0.00 0.00 0.00 0.00 0.00 0.00 0.01 0.01 0.02 0.04 0.04 0.03 0.03 0.02
MSLP
1019.96 1019.45 1018.70 1018.15 1017.79 1017.88 1017.40 1016.96 1016.29 1015.36 1014.67 1014.66 1014.80 1014.79 1014.92 1015.14 1015.51 1015.76 1015.94 1015.94 1016.10 1016.20 1016.45 1016.65 1016.85 1017.04 1016.96 1016.99 1016.94 1016.91 1016.81 1016.33
1020.31 1020.00 1019.45 1018.77 1017.91 1017.83 1017.79 1017.33 1016.70 1015.95 1014.84 1014.80 1014.81 1015.00 1015.01 1015.20 1015.39 1015.72 1015.86 1015.98 1016.18 1016.29 1016.50 1016.73 1016.94 1017.34 1017.08 1017.12 1017.10 1016.91 1016.58 1016.02
1020.69 1020.39 1019.92 1019.44 1018.42 1017.84 1017.70 1017.68 1016.92 1016.48 1015.90 1015.26 1014.72 1014.45 1014.32 1014.70 1015.01 1015.39 1015.63 1015.92 1015.96 1016.39 1016.52 1016.78 1017.14 1017.40 1017.48 1017.28 1017.38 1016.47 1015.90 1015.58
1021.08 1020.92 1020.44 1019.82 1018.90 1018.30 1017.54 1017.48 1017.78 1017.75 1017.14 1016.51 1014.87 1013.94 1013.82 1013.67 1013.88 1015.11 1015.43 1015.88 1016.23 1016.37 1016.64 1016.76 1017.17 1017.03 1017.52 1017.55 1017.09 1015.95 1015.91 1015.87
1021.75 1021.45 1021.14 1020.44 1019.62 1018.67 1018.21 1017.46 1017.32 1017.89 1017.96 1017.49 1016.72 1015.65 1013.92 1013.44 1013.38 1014.27 1015.33 1015.68 1015.98 1016.42 1016.76 1016.69 1016.47 1016.08 1016.52 1016.79 1016.41 1015.59 1015.91 1016.62
1022.26 1022.01 1021.76 1021.16 1020.13 1019.40 1018.82 1018.12 1017.56 1017.41 1017.91 1017.66 1017.33 1016.78 1015.89 1014.45 1013.46 1014.09 1014.57 1015.09 1015.30 1015.49 1015.83 1016.10 1015.78 1015.50 1015.57 1016.30 1015.73 1015.17 1015.67 1016.43
1022.81 1022.34 1022.14 1021.79 1020.98 1020.22 1019.28 1018.60 1018.17 1018.05 1017.48 1018.03 1018.09 1017.63 1016.87 1015.82 1014.02 1014.12 1014.29 1014.54 1014.62 1014.84 1015.04 1015.30 1015.19 1014.90 1014.76 1015.23 1015.22 1014.96 1014.51 1015.96
1023.06 1022.77 1022.58 1022.27 1021.48 1020.88 1019.84 1019.07 1018.89 1018.02 1017.55 1017.76 1017.95 1018.07 1017.61 1016.14 1015.71 1014.21 1014.40 1014.44 1014.52 1014.16 1014.67 1014.45 1014.69 1014.37 1014.42 1014.77 1014.73 1014.69 1014.73 1015.10
1023.40 1022.83 1022.84 1022.55 1022.16 1021.27 1020.34 1019.74 1019.04 1018.35 1017.84 1017.60 1017.62 1017.76 1017.80 1017.36 1016.25 1014.61 1014.29 1014.55 1014.50 1014.00 1014.02 1013.71 1014.15 1014.18 1013.83 1014.60 1014.83 1014.84 1014.67 1015.02
1023.82 1023.43 1023.02 1022.69 1022.15 1021.54 1021.03 1020.49 1019.76 1018.96 1018.40 1017.92 1017.53 1017.69 1017.55 1017.45 1017.14 1014.98 1014.48 1014.32 1014.91 1014.88 1014.19 1013.78 1013.51 1013.84 1013.98 1014.14 1014.31 1014.53 1014.68 1014.66
1024.13 1023.76 1023.42 1023.02 1022.14 1021.54 1021.14 1020.86 1020.45 1019.96 1019.00 1018.54 1018.34 1017.71 1017.34 1017.37 1017.64 1016.76 1016.16 1015.15 1015.09 1014.24 1014.74 1013.96 1013.32 1013.27 1013.40 1013.54 1013.50 1014.35 1014.63 1014.87
1024.49 1024.07 1023.68 1023.23 1022.48 1021.90 1021.14 1020.80 1020.62 1020.46 1020.17 1020.17 1019.65 1019.21 1018.43 1017.58 1017.68 1016.68 1016.34 1016.47 1014.96 1014.55 1014.33 1013.81 1013.18 1012.45 1012.76 1013.14 1013.24 1013.54 1013.76 1014.60
1024.62 1024.17 1023.76 1023.28 1022.67 1022.24 1021.55 1020.86 1020.58 1020.60 1020.47 1020.69 1020.36 1020.20 1019.39 1018.36 1017.29 1017.01 1016.70 1015.45 1015.42 1014.68 1013.58 1012.49 1012.80 1012.22 1012.51 1013.36 1013.34 1013.41 1013.01 1013.55
1024.89 1024.47 1024.00 1023.49 1023.16 1022.74 1022.21 1021.54 1020.80 1020.52 1020.39 1020.53 1020.61 1020.28 1020.07 1019.28 1018.57 1017.80 1017.07 1016.57 1015.72 1014.69 1013.97 1012.80 1012.66 1012.10 1011.91 1012.70 1013.42 1014.03 1013.48 1013.63
1025.17 1024.86 1024.36 1023.80 1023.60 1023.02 1022.50 1021.73 1020.89 1020.57 1020.38 1020.31 1020.78 1020.52 1020.14 1019.78 1019.01 1018.30 1017.51 1016.96 1016.36 1015.50 1014.50 1012.86 1012.38 1012.32 1011.43 1011.59 1012.44 1012.30 1013.01 1013.58
1025.46 1025.17 1024.65 1024.14 1023.90 1023.49 1023.12 1022.12 1021.70 1021.31 1021.14 1021.28 1021.03 1020.63 1020.15 1019.93 1019.36 1018.53 1017.95 1017.08 1016.71 1015.80 1014.56 1012.90 1012.46 1011.46 1010.68 1010.19 1010.97 1011.37 1011.62 1012.74
1025.53 1025.30 1024.84 1024.52 1024.31 1023.98 1023.54 1022.98 1023.06 1022.04 1021.64 1021.74 1021.34 1020.56 1020.15 1019.90 1019.70 1018.76 1018.15 1017.56 1016.44 1015.74 1014.63 1013.46 1011.63 1011.25 1009.22 1009.87 1010.25 1010.57 1010.77 1010.75
1025.61 1025.34 1024.96 1024.71 1024.52 1024.22 1023.75 1023.47 1023.98 1022.97 1022.22 1022.24 1021.51 1020.67 1019.96 1019.73 1019.51 1018.90 1017.78 1017.56 1016.83 1015.89 1014.92 1013.27 1011.57 1010.72 1007.50 1008.97 1009.70 1009.70 1009.69 1010.06
1025.63 1025.44 1025.01 1024.86 1024.63 1024.40 1024.04 1023.72 1024.37 1023.80 1023.28 1022.65 1021.93 1020.92 1020.13 1019.47 1019.08 1018.81 1017.78 1017.15 1016.88 1016.12 1015.02 1013.70 1011.37 1009.26 1008.43 1009.18 1009.23 1009.27 1009.50 1009.54
1025.68 1025.52 1025.10 1024.94 1024.70 1024.44 1024.22 1023.86 1024.20 1024.14 1023.50 1022.95 1022.20 1021.53 1020.79 1019.61 1018.96 1018.55 1018.06 1016.80 1016.45 1016.04 1015.17 1013.72 1012.15 1010.41 1009.02 1009.85 1009.33 1009.45 1009.90 1010.66
Thickness
5660 5664 5669 5675 5678 5679 5683 5685 5690 5698 5702 5702 5702 5703 5702 5699 5697 5694 5694 5695 5694 5694 5693 5692 5691 5689 5691 5692 5693 5694 5696 5700
5649 5650 5654 5658 5667 5670 5670 5673 5678 5685 5694 5694 5695 5694 5694 5692 5693 5690 5690 5689 5690 5690 5690 5688 5688 5685 5687 5689 5691 5692 5696 5700
5634 5636 5640 5644 5651 5658 5663 5663 5669 5673 5678 5683 5688 5690 5691 5688 5690 5688 5684 5685 5688 5685 5685 5684 5682 5681 5680 5685 5686 5692 5698 5701
5619 5621 5626 5632 5638 5644 5652 5655 5654 5654 5659 5666 5680 5686 5686 5686 5689 5684 5680 5679 5676 5680 5679 5680 5678 5679 5675 5678 5684 5694 5696 5698
5602 5606 5609 5614 5620 5629 5634 5642 5646 5645 5646 5649 5657 5666 5678 5679 5682 5680 5672 5673 5672 5671 5672 5674 5678 5681 5679 5679 5685 5695 5693 5690
5584 5585 5590 5597 5605 5612 5617 5623 5630 5635 5634 5638 5642 5649 5655 5664 5672 5666 5667 5666 5670 5670 5672 5673 5677 5681 5682 5679 5686 5694 5692 5688
5567 5570 5572 5575 5583 5592 5599 5606 5612 5614 5621 5620 5623 5629 5637 5648 5661 5656 5658 5657 5664 5667 5670 5673 5676 5681 5684 5684 5684 5692 5698 5689
5548 5551 5553 5557 5564 5571 5581 5589 5590 5598 5604 5605 5608 5613 5619 5634 5641 5653 5653 5650 5652 5660 5664 5673 5674 5680 5683 5682 5683 5688 5691 5692
5530 5534 5535 5537 5541 5551 5560 5567 5574 5580 5587 5591 5595 5599 5603 5613 5624 5641 5643 5641 5648 5655 5656 5667 5671 5675 5683 5678 5679 5681 5686 5689
5509 5512 5516 5519 5525 5530 5537 5542 5550 5558 5565 5572 5577 5583 5590 5594 5605 5616 5635 5642 5638 5643 5650 5658 5668 5671 5675 5677 5678 5679 5681 5685
5490 5492 5494 5498 5507 5514 5519 5523 5528 5534 5544 5550 5558 5566 5573 5580 5584 5598 5609 5623 5628 5639 5640 5648 5658 5667 5673 5677 5678 5673 5677 5677
5475 5477 5478 5481 5487 5492 5501 5506 5510 5514 5519 5523 5531 5539 5551 5561 5569 5587 5593 5598 5616 5628 5635 5645 5652 5666 5668 5671 5674 5674 5678 5675
5465 5467 5469 5470 5473 5476 5481 5488 5493 5495 5499 5504 5510 5516 5525 5539 5553 5567 5574 5591 5600 5616 5619 5638 5645 5657 5657 5655 5664 5665 5673 5676
5458 5459 5460 5460 5460 5461 5465 5469 5473 5476 5480 5484 5490 5499 5505 5515 5526 5544 5557 5567 5582 5599 5608 5627 5636 5648 5648 5650 5643 5646 5659 5666
5450 5450 5451 5453 5451 5452 5454 5459 5466 5465 5465 5468 5469 5478 5488 5496 5508 5521 5539 5551 5561 5574 5591 5611 5623 5632 5648 5645 5639 5642 5657 5660
5440 5439 5441 5442 5441 5442 5441 5449 5452 5455 5454 5450 5451 5458 5469 5477 5490 5504 5517 5533 5545 5556 5574 5598 5611 5624 5643 5654 5655 5661 5660 5653
5432 5430 5430 5429 5428 5429 5430 5433 5433 5442 5443 5440 5439 5444 5453 5460 5468 5485 5500 5512 5532 5544 5559 5579 5607 5618 5645 5645 5649 5657 5664 5665
5421 5421 5421 5420 5418 5417 5419 5420 5414 5424 5430 5427 5432 5434 5441 5448 5453 5465 5485 5496 5513 5529 5546 5564 5596 5594 5634 5643 5641 5648 5659 5663
5412 5412 5413 5411 5410 5408 5407 5408 5401 5406 5410 5415 5420 5425 5427 5439 5445 5450 5467 5483 5496 5511 5529 5549 5577 5611 5613 5628 5637 5646 5655 5660
5405 5403 5404 5403 5401 5399 5397 5397 5393 5392 5398 5403 5408 5411 5414 5420 5434 5441 5448 5468 5483 5495 5511 5533 5557 5585 5605 5605 5623 5630 5635 5637